Regional Weather Roundup
Issued by NWS

Home | Current Version | Previous Version | Graphics & Text | Print | Product List | Glossary On
Versions: 1 2 3 4 5 6 7 8 9 10 11 12 13 14 15 16 17 18 19 20 21 22 23 24 25 26 27 28 29 30 31 32 33 34 35 36 37 38 39 40 41 42 43 44 45 46 47 48 49 50
000
ASUS45 KBOI 202210
RWRID
WEATHER ROUNDUP FOR IDAHO
NATIONAL WEATHER SERVICE BOISE ID
300 PM MST SAT DEC 20 2014

NOTE: "FAIR" INDICATES FEW OR NO CLOUDS BELOW 12000 FEET
WITH NO SIGNIFICANT WEATHER AND/OR OBSTRUCTIONS TO VISIBILITY

IDZ012-014-202300-
SOUTHWEST IDAHO


CITY           SKY/WX    TMP DP  RH WIND       PRES   REMARKS
BOISE          LGT RAIN  43  38  82 SE6       29.96S
CALDWELL       CLOUDY    45  36  70 E10       29.96S
MOUNTAIN HOME  CLOUDY    43  39  87 E13       29.96F
$$

IDZ016-017-202300-
SOUTHCENTRAL IDAHO


CITY           SKY/WX    TMP DP  RH WIND       PRES   REMARKS
BURLEY         CLOUDY    42  36  79 S10       29.97F
JEROME         CLOUDY    42  38  85 E3        29.98F
TWIN FALLS     CLOUDY    46  36  68 S12       29.97F
$$

IDZ019>023-202300-
SOUTHEAST IDAHO


CITY           SKY/WX    TMP DP  RH WIND       PRES   REMARKS
IDAHO FALLS    CLOUDY    37  34  89 SW10      29.99S WCI  30
POCATELLO      CLOUDY    41  34  76 S15       30.00F
REXBURG        CLOUDY    35  33  92 SW14      29.98R WCI  26
$$

IDZ006-010-011-018-031-032-202300-
CENTRAL IDAHO MOUNTAINS


CITY           SKY/WX    TMP DP  RH WIND       PRES   REMARKS
MCCALL         MIX PCPN  33  32  96 SE7       29.86F WCI  27
HAILEY         CLOUDY    34  32  93 SE7       29.97F FOG     WCI  28
STANLEY          N/A     35  27  72 VRB7      29.89F WCI  29
SALMON         CLOUDY    34  28  80 CALM      29.88F
CHALLIS        CLOUDY    33  25  72 CALM      29.89F
$$

IDZ002-004-006-007-026-202300-
NORTHERN IDAHO


CITY           SKY/WX    TMP DP  RH WIND       PRES   REMARKS
LEWISTON       LGT RAIN  44  40  85 E13       29.77F
LOWELL           N/A     41  39  93 VRB3      29.86S
COEUR D`ALENE  CLOUDY    39  37  93 S5        29.74F
MULLAN PASS    SNOW      30  27  88 VRB5      29.70F VSB 1/4 WCI  25
$$



USA.gov is the U.S. government's official web portal to all federal, state and local government web resources and services.